Location: Tumbler Ridge
(55.1167°N, 121.0000°W)
Time: 10:05:18
(UTC-08:00)

Daily predictions for brighter satellites

Satellite Brightness Start Highest point End
(mag) Time Altitude Azimuth Time Altitude Azimuth Time Altitude Azimuth
NOSS 3-1 (C) 4.0 18:04:52 10° NW 18:12:01 80° NE 18:20:07 10° SE
Cosmos 2181 Rocket 4.1 18:05:59 10° N 18:12:17 87° E 18:18:39 10° S
NOSS 2-2 (D) 4.4 18:10:35 10° WSW 18:14:58 60° NNW 18:20:32 10° NE
Thor Agena Rocket 3.5 18:10:00 10° NNE 18:15:06 83° ESE 18:20:10 10° SSW
Cosmos 2082 Rocket 4.0 18:10:21 10° W 18:15:10 27° NNW 18:19:59 10° NNE
HJ-1C 4.0 18:14:11 10° SE 18:17:18 36° ENE 18:20:26 10° N
Envisat 4.4 18:14:23 10° E 18:18:01 20° NE 18:21:39 10° N
Cosmos 1850 Rocket 4.5 18:13:22 10° S 18:18:20 41° ESE 18:23:21 10° NE
USA 186 3.5 18:17:19 10° E 18:18:26 12° ENE 18:19:33 10° NE
Cosmos 1980 3.8 18:13:22 10° NNW 18:19:01 63° NE 18:24:37 10° SE
FENGYUN 3A 3.8 18:14:05 10° SE 18:19:21 53° ENE 18:24:37 10° N
Aureole 2 Rocket 3.8 18:16:37 10° N 18:19:24 21° NE 18:21:58 10° E
Cosmos 1833 4.2 18:15:08 10° SSW 18:20:46 70° ESE 18:26:23 10° NE
Cosmos 1954 Rocket 4.0 18:15:46 10° SSW 18:20:58 75° ESE 18:26:16 10° NNE
NOSS 0 Rocket 3.9 18:15:59 10° NW 18:22:12 81° NE 18:28:21 10° SE
Cosmos 1709 Rocket 4.0 18:16:27 10° S 18:22:37 77° E 18:28:45 10° NNE
Cosmos 2333 Rocket 2.3 18:16:52 10° NNW 18:22:40 77° NE 18:28:26 10° SE
BREEZE-M DEB (TANK) 4.2 18:21:52 10° SW 18:23:24 15° SSW 18:25:28 10° SSE
Cosmos 1437 3.8 18:21:53 10° N 18:24:48 27° ENE 18:27:41 10° SE
Cosmos 2074 Rocket 4.4 18:19:23 10° SSE 18:25:12 42° E 18:31:03 10° NNE
METEOR-M 4.3 18:23:37 10° SSE 18:28:59 85° WSW 18:34:21 10° NNW
Cosmos 2184 Rocket 4.3 18:28:03 10° SSE 18:33:57 45° E 18:39:50 10° NNE
Geosat 4.0 18:28:55 10° NE 18:33:58 73° ESE 18:39:00 10° SSW
Cosmos 1975 4.5 18:32:53 10° ESE 18:35:11 15° E 18:37:31 10° NE
Helios 1A 3.8 18:31:44 10° SE 18:35:25 31° ENE 18:39:06 10° N
Okean 1-7 Rocket 3.7 18:31:11 10° NNW 18:35:46 84° WSW 18:40:14 10° S
Cosmos 1023 Rocket 4.4 18:32:56 10° SSW 18:38:04 81° ESE 18:43:17 10° NNE
Meteor 1-11 Rocket 3.8 18:36:14 10° S 18:42:08 79° E 18:48:08 10° NNE
Nadezhda 3 Rocket 4.2 18:36:17 10° N 18:42:15 47° ENE 18:48:12 10° SE
Cosmos 841 Rocket 3.7 18:39:52 10° NNW 18:44:55 51° NE 18:49:56 10° SE
ATLAS CENTAUR R/B 3.2 18:42:14 10° NW 18:45:31 21° N 18:48:36 10° NE
Cosmos 1300 Rocket 3.8 18:46:15 10° SSW 18:50:41 76° WNW 18:55:10 10° N
Cosmos 540 Rocket 4.3 18:46:52 10° NNW 18:51:30 33° NE 18:55:05 15° ESE
Cosmos 1763 Rocket 3.4 18:48:34 10° NNW 18:53:42 67° ENE 18:58:51 10° SE
Cosmos 405 Rocket 2.7 18:50:06 10° NNW 18:54:12 78° ENE 18:58:14 10° SSE
Spot 1 4.3 18:51:15 10° SE 18:55:15 48° ENE 18:59:26 10° N
Meteor 1-5 Rocket 4.3 18:51:28 10° S 18:57:17 60° E 19:02:58 10° NNE
COSMO-SKYMED 1 3.4 18:55:51 10° N 19:00:08 56° WNW 19:04:22 10° SW
Cosmos 1455 Rocket 3.8 18:57:02 10° SSE 19:00:50 30° E 19:04:38 10° NNE
Cosmos 332 Rocket 3.8 18:56:35 10° NNW 19:01:30 67° ENE 19:06:21 10° SE
Cosmos 2237 Rocket 2.4 18:57:35 10° NW 19:03:19 79° WSW 19:09:01 10° SSE
Cosmos 2154 Rocket 4.4 18:57:56 10° SSE 19:03:49 42° E 19:09:43 10° NNE
H-2A R/B 2.6 19:02:51 10° SSE 19:06:36 84° ENE 19:10:27 10° NNW
SAR-Lupe-1 4.1 19:03:16 10° SSE 19:06:47 54° ENE 19:10:18 10° N
Cosmos 614 Rocket 4.0 19:01:52 10° SSW 19:06:57 81° WNW 19:12:04 10° NNE
FengYun 1-2 T 4.4 19:02:18 10° SSE 19:07:48 76° WSW 19:13:23 10° NNW
SAR-Lupe-4 3.5 19:04:25 10° SSE 19:07:58 64° ENE 19:11:33 10° N
Cosmos 371 Rocket 3.3 19:05:20 10° NNW 19:10:13 63° ENE 19:14:29 13° SE
ALOS 2.7 19:06:13 10° S 19:10:52 66° WSW 19:15:33 10° NNW
H-2A R/B 3.9 19:09:24 13° ENE 19:10:57 15° NE 19:13:51 10° NNE
Cosmos 1140 Rocket 4.0 19:05:57 10° SW 19:11:03 63° WNW 19:16:15 10° NNE
Cosmos 1066 Rocket 4.3 19:05:44 10° N 19:11:21 58° ENE 19:16:47 10° SSE
CZ-2D R/B 3.1 19:07:46 10° SSE 19:11:35 75° ENE 19:15:26 10° NNW
Cosmos 2297 Rocket 3.1 19:07:26 10° SSE 19:11:57 25° ESE 19:16:30 10° NE
Cosmos 2219 Rocket 3.2 19:06:50 10° NW 19:12:11 47° WSW 19:17:32 10° S
Cosmos 1741 Rocket 4.0 19:07:16 10° SSW 19:12:30 88° WNW 19:17:47 10° NNE
SJ-6B 4.3 19:10:27 10° S 19:14:09 40° W 19:17:47 10° NNW
Cosmos 1441 Rocket 3.2 19:16:25 10° NNW 19:20:24 73° ENE 19:24:25 10° SSE
SJ-11-01 4.5 19:24:40 19° SE 19:27:53 52° ENE 19:32:31 10° N
Resurs 01 Rocket 2.3 19:23:52 10° S 19:28:12 57° WSW 19:32:35 10° NNW
H-2A R/B 4.1 19:29:52 13° NE 19:29:52 13° NE 19:31:30 10° NNE
Cosmos 1892 Rocket 4.2 19:27:27 10° NNW 19:31:45 57° W 19:36:02 10° S
Cosmos 2227 Rocket 2.5 19:27:16 10° S 19:32:33 42° ESE 19:37:53 10° NE
Resurs 1-3 4.2 19:29:07 10° S 19:33:28 60° WSW 19:37:50 10° NNW
Cosmos 2219 3.3 19:27:56 10° SW 19:33:42 82° NW 19:39:29 10° NNE
Abrixas rocket 3.8 19:35:28 10° SW 19:38:06 23° S 19:38:06 23° S
Meteor 1-21 4.4 19:33:25 10° N 19:39:03 53° ENE 19:42:09 26° SE
Spot 2 Rocket 4.3 19:34:57 10° S 19:39:55 52° W 19:44:55 10° NNW
GENESIS II 4.4 19:36:37 10° NW 19:40:39 68° SW 19:42:23 32° SSE
SL-16 R/B 2.2 19:35:06 10° NW 19:40:50 87° WSW 19:44:57 20° SSE
GEOS 3 Rocket 4.5 19:42:38 29° SE 19:42:38 29° SE 19:46:47 10° S
Gbstr 26 Del rocket 3.0 19:38:56 10° WSW 19:42:32 45° SSE 19:43:04 42° SE
USA 215 3.2 19:38:32 21° ENE 19:43:13 86° NNW 19:49:46 10° WSW
Cosmos 1943 4.1 19:38:24 10° NNW 19:43:34 34° NE 19:45:26 27° ENE
NOSS 3-4 (A) 4.4 19:38:18 10° WNW 19:44:38 44° N 19:48:44 22° ENE
NOSS 3-4 (C) 4.4 19:38:25 10° WNW 19:44:44 44° N 19:48:51 22° ENE
Cosmos 1610 Rocket 4.5 19:40:19 10° S 19:46:31 87° WNW 19:52:42 10° N
ERS-1 Rocket 3.1 19:45:00 33° ESE 19:46:55 52° ENE 19:51:50 10° N
USA 186 2.1 19:47:52 35° SSW 19:48:46 54° W 19:51:27 10° NNW
Meteor 1-12 Rocket 4.2 19:43:21 10° S 19:49:14 67° E 19:55:03 10° NNE
Cosmos 2218 Rocket 4.4 19:49:19 30° SE 19:51:26 38° E 19:57:10 10° NNE
Terra 3.7 19:52:25 15° NE 19:52:25 15° NE 19:54:42 10° NNE
ATLAS 2AS CENTAUR R/B 3.1 19:44:12 10° NW 19:52:26 78° NE 19:56:44 31° ESE
Iridium 2 3.6 19:53:06 59° ESE 19:53:13 60° E 19:56:59 10° NNE
Cosmos 304 Rocket 3.9 19:49:32 10° NNW 19:54:17 54° ENE 19:55:19 45° E
Aureole 2 Rocket 3.3 19:51:48 10° NW 19:55:05 44° WSW 19:56:11 30° SSW
Cosmos 1939 Rocket 2.7 19:54:17 47° SE 19:55:19 75° ENE 19:59:23 10° NNW
Helios 1B rocket 2.3 19:51:28 10° NNE 19:55:38 65° ESE 19:59:45 10° S
Envisat 2.9 19:52:51 20° SSE 19:56:24 87° ENE 20:01:32 10° NNW
Cosmos 1346 3.3 19:53:44 10° NNW 19:56:21 62° WNW 19:56:21 62° WNW
CZ-4B DEB 3.2 19:56:48 41° SSW 19:57:36 57° WSW 20:00:42 10° NNW
YAOGAN 6 3.4 20:00:24 37° NNE 20:00:24 37° NNE 20:03:01 10° N
Cosmos 1544 Rocket 3.8 19:56:55 10° SSW 20:01:14 69° WNW 20:05:34 10° N
Cosmos 2082 Rocket 4.5 19:57:42 10° NW 20:01:17 17° N 20:04:53 10° NE
Cosmos 1842 3.9 19:57:47 10° N 20:00:56 41° NE 20:00:56 41° NE
USA 32 4.2 20:01:08 10° N 20:06:23 71° W 20:11:34 10° S
Cosmos 2333 Rocket 4.3 20:01:46 10° NW 20:06:25 26° WSW 20:11:04 10° SSW
Cosmos 1295 Rocket 4.4 20:02:46 10° S 20:09:00 70° E 20:15:19 10° NNE
Cosmos 1602 Rocket 3.9 20:05:08 10° NNW 20:09:33 65° W 20:12:17 23° S
Helios 1A 4.3 20:07:02 10° SSW 20:10:56 39° W 20:14:52 10° NNW
Cosmos 1975 2.9 20:07:05 10° SSW 20:11:09 76° WNW 20:15:16 10° N
Cosmos 1500 3.2 20:07:50 10° SSW 20:11:38 76° WNW 20:15:26 10° N
SL-8 Rocket 4.0 20:06:54 10° S 20:13:04 61° E 20:19:19 10° NNE
Cosmos 1626 Rocket 4.1 20:09:08 10° NNW 20:13:33 58° W 20:16:28 20° S
Cosmos 783 Rocket 4.4 20:10:56 10° NNW 20:16:12 85° ENE 20:17:27 53° SE
Cosmos 1825 Rocket 3.6 20:13:03 10° N 20:17:11 60° NE 20:17:11 60° NE
ATLAS CENTAUR R/B 2.7 20:22:08 10° NW 20:25:21 27° NNE 20:25:21 27° NNE
Aureole 1 Rocket 4.5 20:21:06 10° NNW 20:28:27 46° NE 20:29:33 43° ENE
Cosmos 1486 Rocket 4.0 20:24:13 10° SSW 20:29:33 85° WNW 20:34:54 10° NNE
Cosmos 540 Rocket 3.9 20:28:24 10° NNW 20:33:25 57° WSW 20:34:57 41° SSW
Cosmos 2082 3.6 20:30:46 10° SSW 20:36:31 88° WNW 20:42:17 10° NNE
Cosmos 1455 Rocket 4.4 20:34:27 10° SW 20:38:35 40° WNW 20:42:42 10° N
Cosmos 864 Rocket 4.4 20:38:18 62° ESE 20:38:52 65° E 20:44:59 10° NNE
ARGOS 3.1 20:39:29 66° ENE 20:39:29 66° ENE 20:44:50 10° NNW
SPOT 5 2.9 20:41:10 76° NE 20:41:10 76° NE 20:46:18 10° NNW
YAOGAN 11 4.2 20:42:25 76° WNW 20:42:25 76° WNW 20:46:46 10° NNW
Cosmos 1758 Rocket 4.2 20:38:50 10° N 20:42:18 51° N 20:42:18 51° N
MetOp-B 4.0 20:46:39 78° S 20:47:03 88° WSW 20:52:27 10° NNW
COSMOS 2406 4.4 20:42:21 10° NNW 20:47:20 29° NNE 20:47:40 28° NE
Meteor 2-15 Rocket 4.3 20:42:11 10° N 20:48:21 70° ENE 20:48:35 69° E
H-2A R/B 2.6 20:50:01 49° NE 20:50:01 49° NE 20:54:36 10° N
Cosmos 1603 3.8 20:45:18 10° NW 20:50:59 71° WSW 20:51:40 64° SSW
Cosmos 1727 Rocket 4.1 20:46:42 10° NNW 20:53:01 76° W 20:54:51 48° S
Cosmos 2297 Rocket 2.2 20:49:48 10° SW 20:55:29 77° NW 21:01:11 10° NNE
Cosmos 1953 Rocket 4.4 20:51:21 10° NNW 20:54:24 45° NNW 20:54:24 45° NNW
Meteor 2-15 4.3 20:58:25 10° NNW 21:04:36 84° W 21:05:06 76° SSW
H-2A R/B 3.7 21:06:59 28° N 21:06:59 28° N 21:09:04 10° N
Cosmos 2366 rocket 4.0 21:13:07 60° SW 21:14:13 76° WNW 21:20:26 10° N
Cosmos 2227 Rocket 3.0 21:11:05 10° WSW 21:16:36 50° NW 21:22:09 10° NNE
SL-16 R/B 4.3 21:20:12 10° NW 21:24:12 20° W 21:26:52 15° SW
Cosmos 1680 Rocket 4.4 21:19:12 10° NNW 21:22:56 43° N 21:22:56 43° N
ERS-1 Rocket 4.5 21:24:59 29° WSW 21:25:58 31° W 21:30:27 10° NNW
USA 215 3.2 21:25:52 76° NE 21:26:12 78° N 21:32:45 10° WNW
Cosmos 1943 3.6 21:22:27 10° NW 21:27:15 61° WNW 21:27:15 61° WNW
Terra 3.4 21:31:17 30° N 21:31:17 30° N 21:33:42 10° NNW
SPOT 1/Viking Rocket 4.3 21:31:36 50° NW 21:31:36 50° NW 21:35:36 10° NNW
Cosmos 2123 Rocket 4.4 21:26:04 10° N 21:31:02 54° NNE 21:31:02 54° NNE
NOSS 3-4 (A) 3.7 21:29:40 10° NW 21:36:10 73° NNE 21:36:10 73° NNE
NOSS 3-4 (C) 3.7 21:29:47 10° NW 21:36:17 73° NNE 21:36:17 73° NNE
ATLAS 2AS CENTAUR R/B 3.7 21:35:38 10° NW 21:43:09 44° WSW 21:44:11 42° SW
Cosmos 2082 Rocket 4.1 21:43:16 10° NNW 21:47:37 21° NNE 21:47:38 21° NNE
ATLAS CENTAUR R/B 4.4 22:01:12 10° NW 22:01:39 13° NW 22:01:39 13° NW
H-2A R/B 3.9 22:30:39 28° WNW 22:30:39 28° WNW 22:33:53 10° NNW
Cosmos 2297 Rocket 4.1 22:35:43 10° W 22:40:26 26° NNW 22:45:11 10° NNE
Cosmos 2227 Rocket 4.5 22:57:47 10° WNW 23:02:01 21° NNW 23:06:15 10° NNE
Cosmos 2082 Rocket 4.3 23:27:24 10° NNW 23:29:28 22° NNW 23:29:28 22° NNW
